{"data":{"norad_id":68977,"epoch":"2026-09-19T21:07:57.880128Z","epoch_age_seconds":72820,"freshness":"FRESH","line1":"1 68977U 26099AC  26262.88053102  .00014345  00000+0  43492-3 0  9999","line2":"2 68977  53.1586  78.3590 0001312  94.7946 265.3206 15.34398018 21813","mean_motion":15.34398018,"eccentricity":0.0001312,"inclination_deg":53.1586,"raan_deg":78.359,"arg_perigee_deg":94.7946,"mean_anomaly_deg":265.3206,"bstar":0.00043492,"rev_number":2181,"period_min":93.84787930559,"perigee_km":461.81161212273,"apogee_km":463.60665014754,"semimajor_km":6840.8461311351,"source":"CELESTRAK","updated_at":"2026-09-20T09:00:44.057007Z"}}